Weather reports worldwide

Advertisment
Genova/Sestri, Italy (16120): temperature & dewpoint: 13.11.2019 19:00:00 - 19.11.2019 19:00:00 (CET)Genova/Sestri, Italy (16120): wind speed: 13.11.2019 19:00:00 - 19.11.2019 19:00:00 (CET)Genova/Sestri, Italy (16120): wind direction: 13.11.2019 19:00:00 - 19.11.2019 19:00:00 (CET)Genova/Sestri, Italy (16120): reduced air pressure: 13.11.2019 19:00:00 - 19.11.2019 19:00:00 (CET)Genova/Sestri, Italy (16120): visibility: 13.11.2019 19:00:00 - 19.11.2019 19:00:00 (CET)
Date & Time tt [°C] td [°C] ff [km/h] ff [kn] dd ppp [hPa] vv [km]
19.11.2019 19:00:00 9,3 7,0 16 9 NNE 1014,3 7
19.11.2019 18:00:00 9,0 7,0 16 9 NE - 6
19.11.2019 17:00:00 9,0 7,0 21 11 NE - 6
19.11.2019 16:00:00 8,3 6,3 15 8 ENE 1013,5 5
19.11.2019 15:00:00 9,0 6,0 13 7 NE - 4,5
19.11.2019 14:00:00 9,0 6,0 15 8 NNE - 4,0
19.11.2019 13:00:00 7,9 5,8 15 8 N 1012,8 8
19.11.2019 12:00:00 8,0 5,0 16 9 NE - 10
19.11.2019 11:00:00 9,0 6,0 9 5 - - 10
19.11.2019 10:00:00 7,9 5,6 24 13 NE 1012,0 4,0
19.11.2019 09:00:00 8,0 5,0 11 6 - - 4,0
19.11.2019 08:00:00 8,0 5,0 16 9 N - 4,0
19.11.2019 07:00:00 8,5 4,8 11 6 NE 1011,2 6
19.11.2019 06:00:00 8,0 4,0 18 10 NE - 6
19.11.2019 05:00:00 - - - - - - -
19.11.2019 04:00:00 - - - - - - -
19.11.2019 03:00:00 - - - - - - -
19.11.2019 02:00:00 - - - - - - -
19.11.2019 01:00:00 - - - - - - -
19.11.2019 00:00:00 8,0 5,0 21 11 NNE - 10
18.11.2019 23:00:00 9,0 5,0 21 11 NNE - 10
18.11.2019 22:00:00 9,2 4,5 24 13 NNE 1011,8 10
18.11.2019 21:00:00 9,0 5,0 18 10 NNE - 9
18.11.2019 20:00:00 9,0 5,0 13 7 NNE - 10
18.11.2019 19:00:00 9,0 5,0 16 9 NNE 1012,8 10
18.11.2019 18:00:00 8,0 5,0 13 7 NE - 10
18.11.2019 17:00:00 8,0 5,0 9 5 NE - 10
18.11.2019 16:00:00 8,9 5,1 15 8 N 1013,1 6
18.11.2019 15:00:00 9,0 6,0 9 5 - - 10
18.11.2019 14:00:00 10,0 5,0 15 8 NE - 10
18.11.2019 13:00:00 10,4 5,5 16 9 NE 1012,0 10
18.11.2019 12:00:00 11,0 6,0 11 6 NNE - 10
18.11.2019 11:00:00 11,0 6,0 9 5 - - 10
18.11.2019 10:00:00 10,2 5,5 8 4 NNE 1012,3 10
18.11.2019 09:00:00 9,0 5,0 5 3 NE - 10
18.11.2019 08:00:00 9,0 4,0 13 7 NE - 10
18.11.2019 07:00:00 8,6 4,6 16 9 NNE 1009,8 10
18.11.2019 06:00:00 9,0 5,0 9 5 NNE - 10
18.11.2019 05:00:00 8,0 5,0 8 4 N - 10
18.11.2019 04:00:00 7,9 5,2 11 6 NNE 1007,8 10
18.11.2019 03:00:00 8,0 5,0 9 5 NNE - 10
18.11.2019 02:00:00 8,0 5,0 9 5 NNE - 10
18.11.2019 01:00:00 9,0 5,6 8 4 N 1007,0 10
18.11.2019 00:00:00 10,0 5,0 11 6 NNE - 10
17.11.2019 23:00:00 12,0 7,0 22 12 SW - 10
17.11.2019 22:00:00 12,5 6,5 18 10 S 1005,6 10
17.11.2019 21:00:00 13,0 3,0 26 14 SSW - 10
17.11.2019 20:00:00 11,0 6,0 8 4 SW - 10
17.11.2019 19:00:00 12,9 6,1 18 10 S 1004,5 10
17.11.2019 18:00:00 13,0 7,0 26 14 S - 10
17.11.2019 17:00:00 13,0 8,0 26 14 ESE - 10
17.11.2019 16:00:00 12,4 7,0 24 13 SSE 1003,3 10
17.11.2019 15:00:00 11,0 6,0 11 6 ENE - 10
17.11.2019 14:00:00 9,0 4,0 16 9 NE - 10
17.11.2019 13:00:00 8,1 3,8 18 10 NE 1002,7 10
17.11.2019 12:00:00 8,0 4,0 13 7 NE - 10
17.11.2019 11:00:00 7,0 4,0 8 4 ENE - 10
17.11.2019 10:00:00 8,1 4,2 9 5 NNE 1000,8 7
17.11.2019 09:00:00 7,0 5,0 13 7 NE - 7
17.11.2019 08:00:00 9,0 4,0 24 13 N - 10
17.11.2019 07:00:00 8,0 4,3 22 12 N 1000,9 6
17.11.2019 06:00:00 8,0 4,0 18 10 N - 10
17.11.2019 05:00:00 8,0 5,0 26 14 NNE - 6
17.11.2019 04:00:00 9,4 4,9 24 13 N 1002,8 6
17.11.2019 03:00:00 10,0 5,0 37 20 N - 10
17.11.2019 02:00:00 10,0 5,0 28 15 N - 10
17.11.2019 01:00:00 10,4 5,1 24 13 N 1005,7 10
17.11.2019 00:00:00 11,0 5,0 21 11 N - 10
16.11.2019 23:00:00 11,0 6,0 26 14 NNE - 10
16.11.2019 22:00:00 10,5 5,6 21 11 NNE 1008,9 10
16.11.2019 21:00:00 10,0 5,0 24 13 NNE - 10
16.11.2019 20:00:00 10,0 5,0 13 7 NNE - 10
16.11.2019 19:00:00 9,4 5,8 15 8 NE 1010,6 10
16.11.2019 18:00:00 10,0 6,0 16 9 NE - 10
16.11.2019 17:00:00 10,0 6,0 15 8 NE - 10
16.11.2019 16:00:00 9,4 6,7 16 9 NE 1012,3 10
16.11.2019 15:00:00 11,0 7,0 16 9 NE - 10
16.11.2019 14:00:00 12,0 7,0 18 10 WNW - 10
16.11.2019 13:00:00 14,4 8,0 9 5 SSE 1011,5 10
16.11.2019 12:00:00 15,0 9,0 5 3 ESE - 10
16.11.2019 11:00:00 12,0 9,0 8 4 NE - 10
16.11.2019 10:00:00 10,8 7,9 11 6 NE 1012,0 10
16.11.2019 09:00:00 10,0 8,0 15 8 W - 10
16.11.2019 08:00:00 9,0 7,0 9 5 NNE - 10
16.11.2019 07:00:00 9,0 6,0 9 5 NNE - 10
16.11.2019 06:00:00 8,0 6,0 9 5 NNE - 10
16.11.2019 05:00:00 8,0 6,0 11 6 NE - 10
16.11.2019 04:00:00 8,0 6,0 8 4 NNE - 10
16.11.2019 03:00:00 9,0 5,0 5 3 N - 10
16.11.2019 02:00:00 - - - - - - -
16.11.2019 01:00:00 - - - - - - -
16.11.2019 00:00:00 9,0 7,0 4 2 - - 10
15.11.2019 23:00:00 9,0 6,0 8 4 NE - 10
15.11.2019 22:00:00 9,1 6,3 11 6 NE 1005,0 10
15.11.2019 21:00:00 9,0 6,0 9 5 ENE - 10
15.11.2019 20:00:00 10,0 7,0 8 4 NE - 10
15.11.2019 19:00:00 9,8 7,1 8 4 NE 1003,0 10
15.11.2019 18:00:00 10,0 7,0 8 4 NE - 10
15.11.2019 17:00:00 10,0 8,0 11 6 NE - 10
15.11.2019 16:00:00 10,2 7,9 13 7 ENE 1001,9 10
15.11.2019 15:00:00 12,0 9,0 24 13 ESE - 10
15.11.2019 14:00:00 14,0 8,0 9 5 SSE - 10
15.11.2019 13:00:00 13,4 7,7 13 7 SE 1001,3 10
15.11.2019 12:00:00 14,0 7,0 9 5 SSE - 10
15.11.2019 11:00:00 13,0 7,0 9 5 S - 10
15.11.2019 10:00:00 13,6 7,7 11 6 S 1001,5 10
15.11.2019 09:00:00 13,0 7,0 11 6 SSE - 10
15.11.2019 08:00:00 13,0 7,0 11 6 S - 10
15.11.2019 07:00:00 12,7 7,6 8 4 S 1000,4 10
15.11.2019 06:00:00 12,0 10,0 5 3 N - 10
15.11.2019 05:00:00 12,0 10,0 2 1 NE - 10
15.11.2019 04:00:00 11,3 10,2 9 5 ENE 998,2 10
15.11.2019 03:00:00 11,0 10,0 5 3 NW - 5
15.11.2019 02:00:00 14,0 11,0 35 19 S - 3,5
15.11.2019 01:00:00 14,2 12,3 57 31 ESE 997,6 3,5
15.11.2019 00:00:00 10,0 9,0 21 11 ENE - 4,0
14.11.2019 23:00:00 12,0 10,0 18 10 S - 5
14.11.2019 22:00:00 13,3 9,4 54 29 SE 1002,0 6
14.11.2019 21:00:00 15,0 10,0 54 29 ESE - 10
14.11.2019 20:00:00 10,0 6,0 15 8 - - 10
14.11.2019 19:00:00 9,1 5,5 21 11 E 1002,4 8
14.11.2019 18:00:00 9,0 4,0 9 5 - - 10
14.11.2019 17:00:00 9,0 4,0 16 9 NE - 10
14.11.2019 16:00:00 8,8 4,3 22 12 NE 1005,0 10
14.11.2019 15:00:00 9,0 5,0 16 9 NE - 10
14.11.2019 14:00:00 10,0 6,0 11 6 N - 10
14.11.2019 13:00:00 9,5 6,2 11 6 NNE 1006,6 10
14.11.2019 12:00:00 10,0 5,0 22 12 NE - 10
14.11.2019 11:00:00 9,0 6,0 13 7 NE - 10
14.11.2019 10:00:00 8,7 5,5 11 6 NE 1008,6 10
14.11.2019 09:00:00 10,0 7,0 8 4 NE - 10
14.11.2019 08:00:00 11,0 7,0 5 3 N - 10
14.11.2019 07:00:00 10,4 6,8 9 5 NNE 1006,3 10
14.11.2019 06:00:00 10,0 7,0 13 7 NE - 10
14.11.2019 05:00:00 10,0 6,0 9 5 NNE - 10
14.11.2019 04:00:00 10,2 5,1 9 5 N 1006,0 10
14.11.2019 03:00:00 10,0 5,0 13 7 NNE - 10
14.11.2019 02:00:00 9,0 4,0 11 6 NNE - 10
14.11.2019 01:00:00 9,4 4,3 11 6 NNE 1005,7 10
14.11.2019 00:00:00 9,0 4,0 11 6 NNE - 10
13.11.2019 23:00:00 9,0 3,0 13 7 NNE - 10
13.11.2019 22:00:00 9,5 2,7 11 6 NNE 1005,1 10
13.11.2019 21:00:00 10,0 1,0 11 6 NNE - 10
13.11.2019 20:00:00 10,0 0,0 13 7 NNE - 10
13.11.2019 19:00:00 10,6 0,2 11 6 NNE 1003,9 10

tt = temperature
td = dewpoint
ff = wind speed
dd = wind direction
ppp = reduced air pressure
vv = visibility

Next stations